TimeEST,TemperatureF,Dew PointF,Humidity,Sea Level PressureIn,VisibilityMPH,Wind Direction,Wind SpeedMPH,Gust SpeedMPH,PrecipitationIn,Events,Conditions,WindDirDegrees,DateUTC
12:29 AM,29.5,19.8,67,30.45,-9999.0,Variable,3.5,-,N/A,,Unknown,0,2012-11-17 05:29:00
1:25 AM,28.4,18.9,67,30.48,-9999.0,Variable,2.3,-,N/A,,Unknown,0,2012-11-17 06:25:00
2:25 AM,26.1,16.7,68,30.51,-9999.0,Variable,3.5,-,N/A,,Unknown,0,2012-11-17 07:25:00
3:25 AM,23.7,15.4,71,30.53,-9999.0,Calm,Calm,-,0.00,,Unknown,0,2012-11-17 08:25:00
4:25 AM,20.8,14.7,77,30.55,-9999.0,Calm,Calm,-,N/A,,Unknown,0,2012-11-17 09:25:00
5:25 AM,18.1,14.7,86,30.57,-9999.0,Calm,Calm,-,N/A,,Unknown,0,2012-11-17 10:25:00
6:25 AM,16.5,13.8,89,30.60,-9999.0,Variable,2.3,-,0.00,,Unknown,0,2012-11-17 11:25:00
7:25 AM,17.8,14.4,86,30.63,-9999.0,Variable,2.3,-,N/A,,Unknown,0,2012-11-17 12:25:00
8:25 AM,23.0,15.4,73,30.65,-9999.0,Variable,4.6,-,0.01,,Unknown,0,2012-11-17 13:25:00
9:25 AM,25.0,14.7,65,30.65,-9999.0,Calm,Calm,-,0.01,,Unknown,0,2012-11-17 14:25:00
10:25 AM,26.4,13.5,58,30.66,-9999.0,Calm,Calm,-,N/A,,Unknown,0,2012-11-17 15:25:00
11:25 AM,28.8,14.7,56,30.64,-9999.0,Variable,5.8,-,N/A,,Unknown,0,2012-11-17 16:25:00
12:28 PM,30.7,14.5,51,30.64,-9999.0,Calm,Calm,-,N/A,,Unknown,0,2012-11-17 17:28:00
1:25 PM,32.4,12.6,44,30.64,-9999.0,Variable,4.6,-,N/A,,Unknown,0,2012-11-17 18:25:00
2:25 PM,33.8,13.1,43,30.64,-9999.0,Calm,Calm,-,N/A,,Unknown,0,2012-11-17 19:25:00
3:30 PM,30.9,16.9,56,30.64,-9999.0,Calm,Calm,-,N/A,,Unknown,0,2012-11-17 20:30:00
4:25 PM,26.8,17.2,67,30.66,-9999.0,Calm,Calm,-,N/A,,Unknown,0,2012-11-17 21:25:00
5:25 PM,25.2,18.1,75,30.68,-9999.0,Calm,Calm,-,N/A,,Unknown,0,2012-11-17 22:25:00
6:25 PM,22.6,17.8,82,30.68,-9999.0,Calm,Calm,-,0.00,,Unknown,0,2012-11-17 23:25:00
7:25 PM,20.7,16.9,85,30.69,-9999.0,Calm,Calm,-,N/A,,Unknown,0,2012-11-18 00:25:00
8:25 PM,18.9,16.2,89,30.70,-9999.0,Calm,Calm,-,N/A,,Unknown,0,2012-11-18 01:25:00
9:25 PM,17.2,15.3,92,30.70,-9999.0,Calm,Calm,-,0.00,,Unknown,0,2012-11-18 02:25:00
10:25 PM,16.5,15.1,94,30.71,-9999.0,Calm,Calm,-,N/A,,Unknown,0,2012-11-18 03:25:00
11:25 PM,15.8,13.6,91,30.72,-9999.0,Calm,Calm,-,N/A,,Unknown,0,2012-11-18 04:25:00